Simultaneous Nadir Overpasses (SNOs) Predictions

Prediction of SNOs between AQUA and NPP Satellite Orbit:

Table of predicted SNOs for the next 14.0 days since TLE Epoch: 10/28/2022
Index Date (AQUA) Time (AQUA) Lat,Lon (AQUA) SZA (AQUA ) Date (NPP) Time (NPP) Lat,Lon (NPP) SZA (NPP ) Distance(km) Time Diff (sec)
1 10/30/2022 23:04:05 78.91, 86.81 106.27 10/30/2022 23:03:42 78.90, 86.78 106.29 0.78 23
2 10/30/2022 23:53:22 -79.28,-103.27 74.20 10/30/2022 23:54:17 -79.28,-103.26 74.25 0.27 55
3 11/02/2022 14:30:12 -78.87, 35.07 72.86 11/02/2022 14:29:52 -78.86, 34.93 72.82 3.05 20
4 11/02/2022 15:19:29 79.20,-155.29 106.73 11/02/2022 15:20:27 79.19,-155.43 106.71 3.00 58
5 11/05/2022 05:56:17 78.87, -16.40 107.93 11/05/2022 05:56:00 78.87, -16.52 107.97 2.76 17
6 11/05/2022 06:45:34 -79.25, 153.54 72.55 11/05/2022 06:46:35 -79.25, 153.45 72.58 1.95 61
7 11/07/2022 21:22:19 -79.03, -67.00 71.49 11/07/2022 21:22:05 -79.03, -66.93 71.49 1.53 14
8 11/07/2022 22:11:35 79.38, 102.92 108.06 11/07/2022 22:12:39 79.39, 103.02 107.99 2.10 64
9 11/10/2022 12:48:21 79.10,-118.08 109.17 11/10/2022 12:48:11 79.11,-117.96 109.16 2.81 10



Historial Predications of SNOs between AQUA and NPP
